Climatologie pour Saint-Brevin les Pins
Jour • Résumé pour janvier 31, 2017 Système :  Métrique    Anglais   Mixte
« - 1 jour
+ 1 jour »
Jour Semaine Mois Année Personnalisé
  Maximum : Minimum : Moyenne :
Température sous abri : 13.3 °C 10.7 °C 11.7 °C
Point de rosée : 12.0 °C 9.8 °C 11 °C
Humidité : 99 % 87 % 96 %
Vitesse du vent : 16.1 km/h 0.0 km/h 6 km/h
Rafale : 20.9 km/h - -
Direction :- - South
Pression : 1013.4 hPa 1011.7 hPa -
Précipitations : 1.5 mm    
Historical Graphs
 
 
Tableau de données pour janvier 31, 2017
Heure Tempé Pt rosée Pression Vent Vitesse Rafale Humidité Taux pluie (/hr) Soleil
00:00 11.3 °C 11.1 °C 1013.4 hPa SSW 6.4 km/h 17.7 km/h 99 % 0.8 mm 0 W/m2
00:05 11.2 °C 11.1 °C 1013.4 hPa SSW 4.8 km/h 12.9 km/h 99 % 0.8 mm 0 W/m2
00:10 11.2 °C 11.1 °C 1013.4 hPa SSW 4.8 km/h 12.9 km/h 99 % 0.5 mm 0 W/m2
00:15 11.2 °C 11.1 °C 1013.4 hPa SW 3.2 km/h 12.9 km/h 99 % 0.5 mm 0 W/m2
00:20 11.2 °C 11.1 °C 1013.4 hPa SSW 4.8 km/h 12.9 km/h 99 % 0.5 mm 0 W/m2
00:25 11.2 °C 11.1 °C 1013.4 hPa SSW 3.2 km/h 12.9 km/h 99 % 0.5 mm 0 W/m2
00:30 11.2 °C 11.0 °C 1013.4 hPa South 11.3 km/h 12.9 km/h 99 % 0.3 mm 0 W/m2
00:35 11.2 °C 11.1 °C 1013.4 hPa SSW 6.4 km/h 12.9 km/h 99 % 0.3 mm 0 W/m2
00:40 11.2 °C 11.0 °C 1013.4 hPa South 3.2 km/h 11.3 km/h 99 % 0.3 mm 0 W/m2
00:45 11.2 °C 11.1 °C 1013.4 hPa SW 8.0 km/h 11.3 km/h 99 % 0.3 mm 0 W/m2
00:50 11.3 °C 11.1 °C 1013.4 hPa SSW 8.0 km/h 12.9 km/h 99 % 0.3 mm 0 W/m2
00:55 11.3 °C 11.2 °C 1013.4 hPa SSW 6.4 km/h 14.5 km/h 99 % 0.0 mm 0 W/m2
01:00 11.4 °C 11.2 °C 1013.4 hPa SSW 3.2 km/h 14.5 km/h 99 % 0.3 mm 0 W/m2
01:05 11.4 °C 11.2 °C 1013.4 hPa South 9.7 km/h 12.9 km/h 99 % 0.3 mm 0 W/m2
01:10 11.4 °C 11.2 °C 1013.4 hPa South 8.0 km/h 16.1 km/h 99 % 0.3 mm 0 W/m2
01:15 11.4 °C 11.3 °C 1013.4 hPa South 6.4 km/h 16.1 km/h 99 % 0.3 mm 0 W/m2
01:20 11.4 °C 11.3 °C 1013.4 hPa South 9.7 km/h 16.1 km/h 99 % 0.3 mm 0 W/m2
01:25 11.5 °C 11.3 °C 1013.1 hPa SSW 9.7 km/h 14.5 km/h 99 % 0.3 mm 0 W/m2
01:30 11.4 °C 11.3 °C 1013.1 hPa SSW 9.7 km/h 14.5 km/h 99 % 0.3 mm 0 W/m2
01:35 11.5 °C 11.3 °C 1013.1 hPa South 4.8 km/h 11.3 km/h 99 % 0.3 mm 0 W/m2
01:40 11.6 °C 11.4 °C 1013.1 hPa SSW 8.0 km/h 11.3 km/h 99 % 0.5 mm 0 W/m2
01:45 11.6 °C 11.5 °C 1013.1 hPa SSW 3.2 km/h 11.3 km/h 99 % 0.5 mm 0 W/m2
01:50 11.6 °C 11.5 °C 1013.1 hPa South 8.0 km/h 11.3 km/h 99 % 0.5 mm 0 W/m2
01:55 11.6 °C 11.5 °C 1013.1 hPa SSW 9.7 km/h 16.1 km/h 99 % 0.5 mm 0 W/m2
02:00 11.6 °C 11.4 °C 1013.1 hPa South 8.0 km/h 16.1 km/h 99 % 0.5 mm 0 W/m2
02:05 11.6 °C 11.5 °C 1013.1 hPa South 11.3 km/h 16.1 km/h 99 % 0.5 mm 0 W/m2
02:10 11.6 °C 11.5 °C 1013.1 hPa South 4.8 km/h 16.1 km/h 99 % 0.5 mm 0 W/m2
02:15 11.6 °C 11.5 °C 1013.1 hPa SSW 9.7 km/h 14.5 km/h 99 % 0.5 mm 0 W/m2
02:20 11.6 °C 11.4 °C 1013.1 hPa SSW 8.0 km/h 12.9 km/h 99 % 0.5 mm 0 W/m2
02:25 11.6 °C 11.5 °C 1013.1 hPa SSW 6.4 km/h 11.3 km/h 99 % 0.5 mm 0 W/m2
02:30 11.6 °C 11.5 °C 1013.1 hPa South 4.8 km/h 11.3 km/h 99 % 0.5 mm 0 W/m2
02:35 11.6 °C 11.4 °C 1013.1 hPa South 6.4 km/h 11.3 km/h 99 % 0.5 mm 0 W/m2
02:40 11.6 °C 11.5 °C 1013.1 hPa SSW 11.3 km/h 11.3 km/h 99 % 0.5 mm 0 W/m2
02:45 11.7 °C 11.5 °C 1013.1 hPa South 6.4 km/h 12.9 km/h 99 % 0.3 mm 0 W/m2
02:50 11.7 °C 11.5 °C 1013.1 hPa SSE 4.8 km/h 12.9 km/h 99 % 0.3 mm 0 W/m2
02:55 11.7 °C 11.5 °C 1013.1 hPa South 8.0 km/h 9.7 km/h 99 % 0.3 mm 0 W/m2
03:00 11.7 °C 11.5 °C 1012.8 hPa SSE 4.8 km/h 11.3 km/h 99 % 0.3 mm 0 W/m2
03:05 11.6 °C 11.5 °C 1012.8 hPa SSE 4.8 km/h 11.3 km/h 99 % 0.5 mm 0 W/m2
03:10 11.6 °C 11.4 °C 1012.8 hPa SSE 3.2 km/h 11.3 km/h 99 % 0.5 mm 0 W/m2
03:15 11.5 °C 11.3 °C 1012.8 hPa South 6.4 km/h 9.7 km/h 99 % 0.3 mm 0 W/m2
03:20 11.6 °C 11.4 °C 1012.8 hPa SSE 11.3 km/h 12.9 km/h 99 % 0.3 mm 0 W/m2
03:25 11.5 °C 11.3 °C 1012.8 hPa SSE 4.8 km/h 12.9 km/h 99 % 0.3 mm 0 W/m2
03:30 11.5 °C 11.3 °C 1012.8 hPa SE 3.2 km/h 11.3 km/h 99 % 0.3 mm 0 W/m2
03:35 11.5 °C 11.3 °C 1012.8 hPa SSE 9.7 km/h 11.3 km/h 99 % 0.3 mm 0 W/m2
03:40 11.6 °C 11.4 °C 1012.8 hPa SSE 3.2 km/h 11.3 km/h 99 % 0.3 mm 0 W/m2
03:45 11.6 °C 11.4 °C 1012.8 hPa SE 6.4 km/h 11.3 km/h 99 % 0.3 mm 0 W/m2
03:50 11.6 °C 11.4 °C 1012.8 hPa SE 1.6 km/h 9.7 km/h 99 % 0.3 mm 0 W/m2
03:55 11.6 °C 11.4 °C 1012.8 hPa SSE 3.2 km/h 9.7 km/h 99 % 0.3 mm 0 W/m2
04:00 11.6 °C 11.4 °C 1012.8 hPa SSE 3.2 km/h 9.7 km/h 99 % 0.3 mm 0 W/m2
04:05 11.6 °C 11.5 °C 1012.8 hPa South 4.8 km/h 8.0 km/h 99 % 0.0 mm 0 W/m2
04:10 11.7 °C 11.5 °C 1012.4 hPa South 3.2 km/h 9.7 km/h 99 % 0.3 mm 0 W/m2
04:15 11.7 °C 11.6 °C 1012.4 hPa SSE 6.4 km/h 9.7 km/h 99 % 0.3 mm 0 W/m2
04:20 11.7 °C 11.6 °C 1012.4 hPa SSE 1.6 km/h 9.7 km/h 99 % 0.3 mm 0 W/m2
04:25 11.7 °C 11.5 °C 1012.4 hPa SE 4.8 km/h 6.4 km/h 99 % 0.3 mm 0 W/m2
04:30 11.7 °C 11.5 °C 1012.4 hPa Calm   6.4 km/h 99 % 0.3 mm 0 W/m2
04:35 11.7 °C 11.5 °C 1012.4 hPa SE 1.6 km/h 8.0 km/h 99 % 0.3 mm 0 W/m2
04:40 11.7 °C 11.5 °C 1012.4 hPa SE 3.2 km/h 8.0 km/h 99 % 0.3 mm 0 W/m2
04:45 11.7 °C 11.5 °C 1012.4 hPa SE 3.2 km/h 11.3 km/h 99 % 0.3 mm 0 W/m2
04:50 11.7 °C 11.6 °C 1012.4 hPa SSE 4.8 km/h 11.3 km/h 99 % 0.3 mm 0 W/m2
04:55 11.7 °C 11.6 °C 1012.4 hPa Calm   9.7 km/h 99 % 0.3 mm 0 W/m2
05:00 11.7 °C 11.6 °C 1012.4 hPa SSE 4.8 km/h 6.4 km/h 99 % 0.3 mm 0 W/m2
05:05 11.8 °C 11.6 °C 1012.4 hPa SSE 4.8 km/h 8.0 km/h 99 % 0.3 mm 0 W/m2
05:10 11.8 °C 11.6 °C 1012.4 hPa SE 3.2 km/h 8.0 km/h 99 % 0.0 mm 0 W/m2
05:15 11.8 °C 11.6 °C 1012.4 hPa SE 4.8 km/h 6.4 km/h 99 % 0.0 mm 0 W/m2
05:20 11.8 °C 11.6 °C 1012.4 hPa SE 1.6 km/h 6.4 km/h 99 % 0.0 mm 0 W/m2
05:25 11.8 °C 11.6 °C 1012.4 hPa SE 1.6 km/h 6.4 km/h 99 % 0.0 mm 0 W/m2
05:30 11.7 °C 11.6 °C 1012.4 hPa SE 3.2 km/h 6.4 km/h 99 % 0.0 mm 0 W/m2
05:35 11.7 °C 11.6 °C 1012.1 hPa Calm   8.0 km/h 99 % 0.0 mm 0 W/m2
05:40 11.7 °C 11.6 °C 1012.4 hPa SE 8.0 km/h 8.0 km/h 99 % 0.0 mm 0 W/m2
05:45 11.7 °C 11.6 °C 1012.4 hPa SE 3.2 km/h 11.3 km/h 99 % 0.0 mm 0 W/m2
05:50 11.8 °C 11.6 °C 1012.4 hPa SSE 8.0 km/h 11.3 km/h 99 % 0.0 mm 0 W/m2
05:55 11.8 °C 11.7 °C 1012.4 hPa SE 4.8 km/h 9.7 km/h 99 % 0.0 mm 0 W/m2
06:00 11.8 °C 11.7 °C 1012.4 hPa SSE 4.8 km/h 9.7 km/h 99 % 0.0 mm 0 W/m2
06:05 11.9 °C 11.7 °C 1012.1 hPa ESE 6.4 km/h 9.7 km/h 99 % 0.0 mm 0 W/m2
06:10 11.9 °C 11.7 °C 1012.1 hPa SSE 8.0 km/h 12.9 km/h 99 % 0.0 mm 0 W/m2
06:15 11.9 °C 11.7 °C 1012.1 hPa SE 9.7 km/h 12.9 km/h 99 % 0.0 mm 0 W/m2
06:20 11.9 °C 11.8 °C 1012.1 hPa South 9.7 km/h 12.9 km/h 99 % 0.0 mm 0 W/m2
06:25 11.9 °C 11.8 °C 1012.1 hPa SSE 6.4 km/h 12.9 km/h 99 % 0.0 mm 0 W/m2
06:30 11.9 °C 11.8 °C 1012.1 hPa SE 4.8 km/h 12.9 km/h 99 % 0.0 mm 0 W/m2
06:35 11.9 °C 11.8 °C 1012.1 hPa SE 8.0 km/h 12.9 km/h 99 % 0.0 mm 0 W/m2
06:40 11.9 °C 11.8 °C 1012.1 hPa South 4.8 km/h 12.9 km/h 99 % 0.0 mm 0 W/m2
06:45 11.9 °C 11.8 °C 1012.1 hPa SSE 8.0 km/h 11.3 km/h 99 % 0.0 mm 0 W/m2
06:50 11.9 °C 11.8 °C 1012.1 hPa SSE 8.0 km/h 12.9 km/h 99 % 0.0 mm 0 W/m2
06:55 11.9 °C 11.8 °C 1012.1 hPa SE 8.0 km/h 12.9 km/h 99 % 0.0 mm 0 W/m2
07:00 11.9 °C 11.7 °C 1012.1 hPa SE 4.8 km/h 12.9 km/h 99 % 0.0 mm 0 W/m2
07:05 11.9 °C 11.7 °C 1012.1 hPa SE 1.6 km/h 14.5 km/h 99 % 0.0 mm 0 W/m2
07:10 11.9 °C 11.7 °C 1012.1 hPa East 3.2 km/h 14.5 km/h 99 % 0.0 mm 0 W/m2
07:15 11.9 °C 11.8 °C 1012.1 hPa East 4.8 km/h 14.5 km/h 99 % 0.0 mm 0 W/m2
07:20 11.9 °C 11.8 °C 1012.1 hPa ESE 6.4 km/h 12.9 km/h 99 % 0.0 mm 0 W/m2
07:25 12.0 °C 11.8 °C 1012.1 hPa SE 1.6 km/h 12.9 km/h 99 % 0.0 mm 0 W/m2
07:30 12.0 °C 11.8 °C 1012.1 hPa SSE 8.0 km/h 12.9 km/h 99 % 0.0 mm 0 W/m2
07:35 11.9 °C 11.8 °C 1012.1 hPa SE 1.6 km/h 12.9 km/h 99 % 0.0 mm 0 W/m2
07:40 12.0 °C 11.8 °C 1012.1 hPa Calm   14.5 km/h 99 % 0.0 mm 0 W/m2
07:45 12.0 °C 11.8 °C 1012.1 hPa Calm   14.5 km/h 99 % 0.0 mm 0 W/m2
07:50 12.1 °C 11.9 °C 1012.1 hPa SE 1.6 km/h 11.3 km/h 99 % 0.0 mm 0 W/m2
07:55 12.1 °C 12.0 °C 1012.4 hPa SE 3.2 km/h 8.0 km/h 99 % 0.0 mm 0 W/m2
08:00 12.2 °C 12.0 °C 1012.4 hPa SSW 4.8 km/h 8.0 km/h 99 % 0.0 mm 0 W/m2
08:05 12.2 °C 12.0 °C 1012.4 hPa South 9.7 km/h 9.7 km/h 99 % 0.3 mm 0 W/m2
08:10 12.2 °C 12.0 °C 1012.4 hPa South 6.4 km/h 9.7 km/h 99 % 0.3 mm 0 W/m2
08:15 12.1 °C 12.0 °C 1012.4 hPa SSW 1.6 km/h 11.3 km/h 99 % 0.3 mm 0 W/m2
08:20 12.0 °C 11.8 °C 1012.4 hPa South 1.6 km/h 11.3 km/h 99 % 0.3 mm 0 W/m2
08:25 12.0 °C 11.8 °C 1012.4 hPa SSE 8.0 km/h 17.7 km/h 99 % 0.3 mm 0 W/m2
08:30 12.1 °C 12.0 °C 1012.4 hPa SSW 6.4 km/h 17.7 km/h 99 % 0.3 mm 0 W/m2
08:35 11.9 °C 11.7 °C 1012.4 hPa South 8.0 km/h 11.3 km/h 99 % 0.3 mm 0 W/m2
08:40 11.8 °C 11.6 °C 1012.4 hPa South 9.7 km/h 16.1 km/h 99 % 0.3 mm 0 W/m2
08:45 11.7 °C 11.6 °C 1012.4 hPa SSE 16.1 km/h 17.7 km/h 99 % 0.3 mm 0 W/m2
08:50 11.7 °C 11.5 °C 1012.4 hPa SE 9.7 km/h 17.7 km/h 99 % 0.3 mm 0 W/m2
08:55 11.7 °C 11.6 °C 1012.8 hPa South 11.3 km/h 17.7 km/h 99 % 0.3 mm 5 W/m2
09:00 11.7 °C 11.6 °C 1012.8 hPa South 9.7 km/h 14.5 km/h 99 % 0.0 mm 5 W/m2
09:05 11.7 °C 11.6 °C 1012.8 hPa SSE 6.4 km/h 11.3 km/h 99 % 0.0 mm 5 W/m2
09:10 11.8 °C 11.6 °C 1012.8 hPa SE 9.7 km/h 19.3 km/h 99 % 0.0 mm 7 W/m2
09:15 11.8 °C 11.7 °C 1012.8 hPa South 11.3 km/h 20.9 km/h 99 % 0.0 mm 9 W/m2
09:20 11.8 °C 11.7 °C 1012.8 hPa South 6.4 km/h 20.9 km/h 99 % 0.0 mm 12 W/m2
09:25 11.8 °C 11.7 °C 1012.8 hPa SSE 12.9 km/h 16.1 km/h 99 % 0.0 mm 12 W/m2
09:30 11.8 °C 11.7 °C 1012.8 hPa SSE 4.8 km/h 16.1 km/h 99 % 0.0 mm 16 W/m2
09:35 11.8 °C 11.7 °C 1012.8 hPa SSE 11.3 km/h 19.3 km/h 99 % 0.0 mm 19 W/m2
09:40 11.8 °C 11.7 °C 1012.8 hPa SSE 6.4 km/h 19.3 km/h 99 % 0.0 mm 23 W/m2
09:45 11.9 °C 11.7 °C 1012.8 hPa SSE 6.4 km/h 16.1 km/h 99 % 0.0 mm 23 W/m2
09:50 11.9 °C 11.7 °C 1012.8 hPa ESE 12.9 km/h 16.1 km/h 99 % 0.0 mm 19 W/m2
09:55 11.9 °C 11.7 °C 1012.8 hPa SSE 9.7 km/h 16.1 km/h 99 % 0.0 mm 21 W/m2
10:00 11.9 °C 11.7 °C 1012.8 hPa South 6.4 km/h 16.1 km/h 99 % 0.0 mm 21 W/m2
10:05 11.9 °C 11.7 °C 1013.1 hPa SSE 6.4 km/h 16.1 km/h 99 % 0.0 mm 26 W/m2
10:10 11.9 °C 11.7 °C 1012.8 hPa SE 6.4 km/h 16.1 km/h 99 % 0.0 mm 35 W/m2
10:15 11.9 °C 11.8 °C 1012.8 hPa SE 8.0 km/h 12.9 km/h 99 % 0.0 mm 33 W/m2
10:20 11.9 °C 11.8 °C 1012.8 hPa SSE 6.4 km/h 16.1 km/h 99 % 0.0 mm 26 W/m2
10:25 11.9 °C 11.7 °C 1012.8 hPa SSE 12.9 km/h 17.7 km/h 99 % 0.0 mm 30 W/m2
10:30 11.9 °C 11.7 °C 1013.1 hPa SSE 6.4 km/h 17.7 km/h 99 % 0.0 mm 26 W/m2
10:35 11.9 °C 11.7 °C 1013.1 hPa South 11.3 km/h 17.7 km/h 99 % 0.0 mm 49 W/m2
10:40 11.8 °C 11.7 °C 1013.1 hPa SE 9.7 km/h 14.5 km/h 99 % 0.0 mm 47 W/m2
10:45 11.8 °C 11.7 °C 1013.1 hPa SSE 6.4 km/h 17.7 km/h 99 % 0.0 mm 46 W/m2
10:50 11.8 °C 11.6 °C 1013.1 hPa SE 4.8 km/h 17.7 km/h 99 % 0.0 mm 37 W/m2
10:55 11.8 °C 11.6 °C 1013.1 hPa SE 8.0 km/h 14.5 km/h 99 % 0.0 mm 35 W/m2
11:00 11.7 °C 11.6 °C 1013.1 hPa SE 4.8 km/h 14.5 km/h 99 % 0.3 mm 42 W/m2
11:05 11.7 °C 11.6 °C 1013.1 hPa SSE 3.2 km/h 14.5 km/h 99 % 0.3 mm 54 W/m2
11:10 11.7 °C 11.5 °C 1013.1 hPa SE 3.2 km/h 11.3 km/h 99 % 0.3 mm 67 W/m2
11:15 11.7 °C 11.4 °C 1013.1 hPa SSE 3.2 km/h 12.9 km/h 98 % 0.3 mm 74 W/m2
11:20 11.7 °C 11.4 °C 1013.4 hPa South 4.8 km/h 12.9 km/h 98 % 0.3 mm 88 W/m2
11:25 11.7 °C 11.4 °C 1013.4 hPa SSE 3.2 km/h 11.3 km/h 98 % 0.3 mm 109 W/m2
11:30 11.8 °C 11.5 °C 1013.4 hPa SSE 8.0 km/h 12.9 km/h 98 % 0.3 mm 137 W/m2
11:35 11.8 °C 11.5 °C 1013.4 hPa SSE 8.0 km/h 12.9 km/h 98 % 0.3 mm 165 W/m2
11:40 11.9 °C 11.6 °C 1013.4 hPa SW 11.3 km/h 11.3 km/h 98 % 0.3 mm 195 W/m2
11:45 11.9 °C 11.6 °C 1013.4 hPa South 9.7 km/h 17.7 km/h 98 % 0.3 mm 190 W/m2
11:50 11.9 °C 11.5 °C 1013.4 hPa SSW 8.0 km/h 17.7 km/h 97 % 0.3 mm 162 W/m2
11:55 11.9 °C 11.4 °C 1013.4 hPa SSW 8.0 km/h 14.5 km/h 97 % 0.3 mm 149 W/m2
12:00 11.8 °C 11.2 °C 1013.4 hPa South 11.3 km/h 17.7 km/h 96 % 0.0 mm 139 W/m2
12:05 11.7 °C 11.1 °C 1013.4 hPa South 9.7 km/h 17.7 km/h 96 % 0.0 mm 135 W/m2
12:10 11.7 °C 10.9 °C 1013.4 hPa South 12.9 km/h 17.7 km/h 95 % 0.0 mm 135 W/m2
12:15 11.7 °C 10.9 °C 1013.4 hPa South 9.7 km/h 17.7 km/h 95 % 0.0 mm 137 W/m2
12:20 11.7 °C 10.7 °C 1013.4 hPa South 11.3 km/h 19.3 km/h 94 % 0.0 mm 132 W/m2
12:25 11.7 °C 10.7 °C 1013.4 hPa South 6.4 km/h 19.3 km/h 94 % 0.0 mm 141 W/m2
12:30 11.8 °C 10.8 °C 1013.4 hPa South 11.3 km/h 16.1 km/h 94 % 0.0 mm 142 W/m2
12:35 11.8 °C 10.8 °C 1013.4 hPa South 9.7 km/h 14.5 km/h 94 % 0.0 mm 142 W/m2
12:40 11.8 °C 10.7 °C 1013.4 hPa SSE 9.7 km/h 16.1 km/h 93 % 0.0 mm 160 W/m2
12:45 11.8 °C 10.9 °C 1013.1 hPa SE 6.4 km/h 16.1 km/h 94 % 0.0 mm 142 W/m2
12:50 11.8 °C 10.7 °C 1013.1 hPa SSE 4.8 km/h 16.1 km/h 93 % 0.0 mm 128 W/m2
12:55 11.8 °C 10.9 °C 1013.1 hPa South 9.7 km/h 16.1 km/h 94 % 0.0 mm 158 W/m2
13:00 11.8 °C 10.7 °C 1013.1 hPa South 11.3 km/h 14.5 km/h 93 % 0.0 mm 155 W/m2
13:05 11.9 °C 10.8 °C 1013.1 hPa South 6.4 km/h 16.1 km/h 93 % 0.0 mm 141 W/m2
13:10 11.9 °C 10.8 °C 1012.8 hPa South 6.4 km/h 16.1 km/h 93 % 0.0 mm 153 W/m2
13:15 12.1 °C 11.0 °C 1012.8 hPa South 4.8 km/h 14.5 km/h 93 % 0.0 mm 169 W/m2
13:20 12.2 °C 11.1 °C 1012.8 hPa South 8.0 km/h 16.1 km/h 93 % 0.0 mm 141 W/m2
13:25 12.2 °C 11.1 °C 1012.8 hPa SSE 4.8 km/h 16.1 km/h 93 % 0.0 mm 120 W/m2
13:30 12.2 °C 11.1 °C 1012.8 hPa SE 6.4 km/h 14.5 km/h 93 % 0.0 mm 134 W/m2
13:35 12.2 °C 11.0 °C 1012.4 hPa SSE 6.4 km/h 16.1 km/h 92 % 0.0 mm 190 W/m2
13:40 12.4 °C 11.3 °C 1012.4 hPa SSE 3.2 km/h 16.1 km/h 93 % 0.0 mm 167 W/m2
13:45 12.5 °C 11.1 °C 1012.4 hPa South 4.8 km/h 14.5 km/h 91 % 0.0 mm 142 W/m2
13:50 12.5 °C 11.1 °C 1012.4 hPa SSE 6.4 km/h 14.5 km/h 91 % 0.0 mm 137 W/m2
13:55 12.6 °C 11.1 °C 1012.4 hPa South 4.8 km/h 12.9 km/h 91 % 0.0 mm 178 W/m2
14:00 12.7 °C 11.3 °C 1012.4 hPa South 9.7 km/h 12.9 km/h 91 % 0.0 mm 178 W/m2
14:05 12.7 °C 11.3 °C 1012.4 hPa South 6.4 km/h 12.9 km/h 91 % 0.0 mm 188 W/m2
14:10 12.9 °C 11.5 °C 1012.1 hPa SE 4.8 km/h 12.9 km/h 91 % 0.0 mm 246 W/m2
14:15 13.2 °C 11.6 °C 1012.1 hPa SSE 8.0 km/h 14.5 km/h 90 % 0.0 mm 308 W/m2
14:20 13.3 °C 11.6 °C 1012.1 hPa SSE 6.4 km/h 14.5 km/h 89 % 0.0 mm 195 W/m2
14:25 13.2 °C 11.4 °C 1012.1 hPa South 6.4 km/h 14.5 km/h 89 % 0.0 mm 172 W/m2
14:30 13.1 °C 11.5 °C 1012.1 hPa SSE 3.2 km/h 14.5 km/h 90 % 0.0 mm 162 W/m2
14:35 13.1 °C 11.3 °C 1012.1 hPa South 4.8 km/h 12.9 km/h 89 % 0.0 mm 156 W/m2
14:40 13.1 °C 11.3 °C 1012.1 hPa SSE 1.6 km/h 11.3 km/h 89 % 0.0 mm 142 W/m2
14:45 13.2 °C 11.6 °C 1012.1 hPa SSW 9.7 km/h 11.3 km/h 90 % 0.0 mm 121 W/m2
14:50 13.2 °C 11.6 °C 1012.1 hPa South 3.2 km/h 11.3 km/h 90 % 0.0 mm 135 W/m2
14:55 13.3 °C 11.7 °C 1012.1 hPa South 6.4 km/h 12.9 km/h 90 % 0.0 mm 139 W/m2
15:00 13.3 °C 11.6 °C 1012.1 hPa South 8.0 km/h 12.9 km/h 89 % 0.0 mm 116 W/m2
15:05 13.3 °C 11.6 °C 1012.1 hPa South 4.8 km/h 12.9 km/h 89 % 0.0 mm 81 W/m2
15:10 13.2 °C 11.4 °C 1012.1 hPa Calm   12.9 km/h 89 % 0.0 mm 104 W/m2
15:15 12.9 °C 11.1 °C 1012.1 hPa SSW 1.6 km/h 11.3 km/h 89 % 0.0 mm 100 W/m2
15:20 12.7 °C 11.0 °C 1012.1 hPa SW 8.0 km/h 12.9 km/h 89 % 0.0 mm 141 W/m2
15:25 12.6 °C 10.8 °C 1012.1 hPa SW 9.7 km/h 12.9 km/h 89 % 0.0 mm 162 W/m2
15:30 12.4 °C 10.7 °C 1012.1 hPa SW 6.4 km/h 12.9 km/h 89 % 0.0 mm 160 W/m2
15:35 12.4 °C 10.5 °C 1012.1 hPa SSW 1.6 km/h 12.9 km/h 88 % 0.0 mm 144 W/m2
15:40 12.4 °C 10.5 °C 1012.1 hPa South 8.0 km/h 11.3 km/h 88 % 0.0 mm 144 W/m2
15:45 12.4 °C 10.5 °C 1012.1 hPa SSE 6.4 km/h 11.3 km/h 88 % 0.0 mm 149 W/m2
15:50 12.4 °C 10.7 °C 1012.1 hPa SSW 3.2 km/h 11.3 km/h 89 % 0.0 mm 134 W/m2
15:55 12.6 °C 10.8 °C 1012.1 hPa SSW 8.0 km/h 9.7 km/h 89 % 0.0 mm 146 W/m2
16:00 12.6 °C 10.7 °C 1012.1 hPa SSW 6.4 km/h 11.3 km/h 88 % 0.0 mm 178 W/m2
16:05 12.7 °C 10.8 °C 1012.1 hPa SSW 8.0 km/h 11.3 km/h 88 % 0.0 mm 197 W/m2
16:10 12.9 °C 10.9 °C 1012.1 hPa South 6.4 km/h 12.9 km/h 88 % 0.0 mm 160 W/m2
16:15 12.9 °C 10.9 °C 1012.1 hPa South 4.8 km/h 12.9 km/h 88 % 0.0 mm 144 W/m2
16:20 12.8 °C 10.7 °C 1011.7 hPa SSW 11.3 km/h 14.5 km/h 87 % 0.0 mm 174 W/m2
16:25 12.9 °C 10.9 °C 1011.7 hPa SSW 6.4 km/h 14.5 km/h 88 % 0.0 mm 142 W/m2
16:30 12.8 °C 10.8 °C 1011.7 hPa South 6.4 km/h 11.3 km/h 88 % 0.0 mm 120 W/m2
16:35 12.7 °C 10.8 °C 1012.1 hPa South 4.8 km/h 12.9 km/h 88 % 0.0 mm 104 W/m2
16:40 12.7 °C 10.7 °C 1012.1 hPa SSE 3.2 km/h 12.9 km/h 88 % 0.0 mm 95 W/m2
16:45 12.6 °C 10.8 °C 1011.7 hPa South 9.7 km/h 14.5 km/h 89 % 0.0 mm 86 W/m2
16:50 12.6 °C 10.6 °C 1011.7 hPa SSE 8.0 km/h 14.5 km/h 88 % 0.0 mm 84 W/m2
16:55 12.5 °C 10.7 °C 1011.7 hPa SSW 6.4 km/h 12.9 km/h 89 % 0.0 mm 77 W/m2
17:00 12.4 °C 10.7 °C 1011.7 hPa South 4.8 km/h 12.9 km/h 89 % 0.0 mm 69 W/m2
17:05 12.4 °C 10.6 °C 1011.7 hPa SSE 6.4 km/h 12.9 km/h 89 % 0.0 mm 62 W/m2
17:10 12.3 °C 10.5 °C 1011.7 hPa SSW 8.0 km/h 12.9 km/h 89 % 0.0 mm 56 W/m2
17:15 12.2 °C 10.6 °C 1011.7 hPa SSW 6.4 km/h 12.9 km/h 90 % 0.0 mm 49 W/m2
17:20 12.1 °C 10.5 °C 1011.7 hPa South 1.6 km/h 9.7 km/h 90 % 0.0 mm 44 W/m2
17:25 12.0 °C 10.4 °C 1012.1 hPa South 3.2 km/h 9.7 km/h 90 % 0.0 mm 37 W/m2
17:30 11.9 °C 10.5 °C 1012.1 hPa Calm   8.0 km/h 91 % 0.0 mm 30 W/m2
17:35 11.8 °C 10.4 °C 1012.1 hPa SSW 1.6 km/h 9.7 km/h 91 % 0.0 mm 26 W/m2
17:40 11.8 °C 10.4 °C 1012.1 hPa Calm   9.7 km/h 91 % 0.0 mm 23 W/m2
17:45 11.6 °C 10.2 °C 1012.1 hPa SSW 3.2 km/h 6.4 km/h 91 % 0.0 mm 16 W/m2
17:50 11.4 °C 10.1 °C 1012.1 hPa South 4.8 km/h 8.0 km/h 92 % 0.0 mm 11 W/m2
17:55 11.3 °C 10.0 °C 1012.1 hPa SSW 4.8 km/h 9.7 km/h 92 % 0.0 mm 7 W/m2
18:00 11.2 °C 10.0 °C 1012.1 hPa Calm   9.7 km/h 92 % 0.0 mm 5 W/m2
18:05 11.2 °C 9.9 °C 1012.4 hPa SSW 1.6 km/h 8.0 km/h 92 % 0.0 mm 0 W/m2
18:10 11.1 °C 9.9 °C 1012.4 hPa SSW 3.2 km/h 6.4 km/h 92 % 0.0 mm 0 W/m2
18:15 11.1 °C 9.8 °C 1012.4 hPa SSW 3.2 km/h 6.4 km/h 92 % 0.0 mm 0 W/m2
18:20 11.0 °C 9.9 °C 1012.1 hPa South 4.8 km/h 6.4 km/h 93 % 0.0 mm 0 W/m2
18:25 11.0 °C 9.9 °C 1012.1 hPa South 4.8 km/h 6.4 km/h 93 % 0.0 mm 0 W/m2
18:30 11.0 °C 9.9 °C 1012.1 hPa SSE 3.2 km/h 8.0 km/h 93 % 0.0 mm 0 W/m2
18:35 11.1 °C 10.0 °C 1012.1 hPa South 4.8 km/h 8.0 km/h 93 % 0.0 mm 0 W/m2
18:40 11.1 °C 10.0 °C 1012.4 hPa SSW 4.8 km/h 8.0 km/h 93 % 0.0 mm 0 W/m2
18:45 11.2 °C 10.1 °C 1012.4 hPa South 3.2 km/h 8.0 km/h 93 % 0.0 mm 0 W/m2
18:50 11.1 °C 10.0 °C 1012.4 hPa SE 8.0 km/h 8.0 km/h 93 % 0.0 mm 0 W/m2
18:55 11.1 °C 10.0 °C 1012.4 hPa South 3.2 km/h 8.0 km/h 93 % 0.0 mm 0 W/m2
19:00 11.2 °C 10.1 °C 1012.4 hPa South 6.4 km/h 8.0 km/h 93 % 0.0 mm 0 W/m2
19:05 11.1 °C 10.0 °C 1012.4 hPa South 4.8 km/h 9.7 km/h 93 % 0.0 mm 0 W/m2
19:10 11.1 °C 10.0 °C 1012.4 hPa SSE 4.8 km/h 9.7 km/h 93 % 0.0 mm 0 W/m2
19:15 11.1 °C 10.0 °C 1012.4 hPa SSE 4.8 km/h 8.0 km/h 93 % 0.0 mm 0 W/m2
19:20 11.0 °C 9.9 °C 1012.4 hPa SSE 4.8 km/h 8.0 km/h 93 % 0.0 mm 0 W/m2
19:25 11.0 °C 9.9 °C 1012.4 hPa SSE 4.8 km/h 9.7 km/h 93 % 0.0 mm 0 W/m2
19:30 11.0 °C 9.9 °C 1012.4 hPa SSE 4.8 km/h 9.7 km/h 93 % 0.0 mm 0 W/m2
19:35 11.0 °C 9.9 °C 1012.4 hPa South 6.4 km/h 9.7 km/h 93 % 0.0 mm 0 W/m2
19:40 11.0 °C 9.9 °C 1012.4 hPa SSE 8.0 km/h 9.7 km/h 93 % 0.0 mm 0 W/m2
19:45 11.1 °C 10.0 °C 1012.1 hPa South 9.7 km/h 9.7 km/h 93 % 0.0 mm 0 W/m2
19:50 11.1 °C 10.0 °C 1012.1 hPa SE 6.4 km/h 9.7 km/h 93 % 0.0 mm 0 W/m2
19:55 11.1 °C 10.0 °C 1012.1 hPa SSE 4.8 km/h 12.9 km/h 93 % 0.0 mm 0 W/m2
20:00 11.1 °C 10.0 °C 1012.1 hPa South 6.4 km/h 12.9 km/h 93 % 0.0 mm 0 W/m2
20:05 11.1 °C 10.0 °C 1012.1 hPa SSE 6.4 km/h 11.3 km/h 93 % 0.0 mm 0 W/m2
20:10 11.2 °C 10.1 °C 1012.1 hPa SSE 4.8 km/h 11.3 km/h 93 % 0.0 mm 0 W/m2
20:15 11.2 °C 10.1 °C 1012.1 hPa SSE 1.6 km/h 14.5 km/h 93 % 0.0 mm 0 W/m2
20:20 11.2 °C 10.1 °C 1012.4 hPa South 6.4 km/h 14.5 km/h 93 % 0.0 mm 0 W/m2
20:25 11.3 °C 10.2 °C 1012.4 hPa South 4.8 km/h 11.3 km/h 93 % 0.0 mm 0 W/m2
20:30 11.3 °C 10.2 °C 1012.4 hPa South 4.8 km/h 11.3 km/h 93 % 0.0 mm 0 W/m2
20:35 11.3 °C 10.2 °C 1012.4 hPa SSW 4.8 km/h 11.3 km/h 93 % 0.0 mm 0 W/m2
20:40 11.3 °C 10.2 °C 1012.4 hPa SSW 9.7 km/h 11.3 km/h 93 % 0.0 mm 0 W/m2
20:45 11.2 °C 10.1 °C 1012.4 hPa South 3.2 km/h 14.5 km/h 93 % 0.0 mm 0 W/m2
20:50 11.2 °C 10.1 °C 1012.4 hPa South 4.8 km/h 14.5 km/h 93 % 0.0 mm 0 W/m2
20:55 11.1 °C 10.0 °C 1012.4 hPa South 6.4 km/h 11.3 km/h 93 % 0.0 mm 0 W/m2
21:00 11.1 °C 10.0 °C 1012.4 hPa South 9.7 km/h 11.3 km/h 93 % 0.0 mm 0 W/m2
21:05 11.1 °C 10.2 °C 1012.4 hPa South 8.0 km/h 14.5 km/h 94 % 0.0 mm 0 W/m2
21:10 11.1 °C 10.0 °C 1012.1 hPa South 6.4 km/h 14.5 km/h 93 % 0.0 mm 0 W/m2
21:15 11.1 °C 10.1 °C 1012.1 hPa South 3.2 km/h 14.5 km/h 94 % 0.0 mm 0 W/m2
21:20 11.1 °C 10.1 °C 1012.1 hPa South 4.8 km/h 11.3 km/h 94 % 0.0 mm 0 W/m2
21:25 11.1 °C 10.1 °C 1012.1 hPa South 8.0 km/h 9.7 km/h 94 % 0.0 mm 0 W/m2
21:30 11.0 °C 10.1 °C 1012.1 hPa South 8.0 km/h 12.9 km/h 94 % 0.0 mm 0 W/m2
21:35 11.0 °C 10.1 °C 1012.4 hPa South 4.8 km/h 12.9 km/h 94 % 0.0 mm 0 W/m2
21:45 10.8 °C 9.9 °C 1012.4 hPa SSW 8.0 km/h 8.0 km/h 94 % 0.0 mm 0 W/m2
21:50 10.8 °C 10.0 °C 1012.1 hPa South 8.0 km/h 9.7 km/h 95 % 0.0 mm 0 W/m2
21:55 10.8 °C 10.0 °C 1012.1 hPa South 9.7 km/h 11.3 km/h 95 % 0.0 mm 0 W/m2
22:00 10.8 °C 10.0 °C 1012.1 hPa SSE 6.4 km/h 11.3 km/h 95 % 0.0 mm 0 W/m2
22:05 10.8 °C 10.1 °C 1011.7 hPa SSW 8.0 km/h 11.3 km/h 95 % 0.0 mm 0 W/m2
22:10 10.8 °C 10.1 °C 1011.7 hPa South 6.4 km/h 11.3 km/h 95 % 0.0 mm 0 W/m2
22:15 10.8 °C 10.1 °C 1012.1 hPa SSE 3.2 km/h 9.7 km/h 95 % 0.0 mm 0 W/m2
22:20 10.8 °C 10.1 °C 1012.1 hPa South 3.2 km/h 8.0 km/h 95 % 0.0 mm 0 W/m2
22:30 10.8 °C 10.0 °C 1012.4 hPa SSW 1.6 km/h 8.0 km/h 95 % 0.0 mm 0 W/m2
22:35 10.8 °C 10.1 °C 1012.4 hPa SSW 3.2 km/h 8.0 km/h 95 % 0.0 mm 0 W/m2
22:40 10.8 °C 10.2 °C 1012.1 hPa SSW 3.2 km/h 6.4 km/h 96 % 0.0 mm 0 W/m2
22:45 10.8 °C 10.2 °C 1012.1 hPa SSW 6.4 km/h 8.0 km/h 96 % 0.0 mm 0 W/m2
22:50 10.7 °C 10.0 °C 1012.1 hPa South 6.4 km/h 11.3 km/h 95 % 0.0 mm 0 W/m2
22:55 10.7 °C 10.1 °C 1012.1 hPa South 4.8 km/h 11.3 km/h 96 % 0.0 mm 0 W/m2
23:00 10.7 °C 10.1 °C 1012.1 hPa South 1.6 km/h 9.7 km/h 96 % 0.0 mm 0 W/m2
23:05 10.7 °C 10.1 °C 1012.1 hPa South 6.4 km/h 9.7 km/h 96 % 0.0 mm 0 W/m2
23:10 10.7 °C 10.1 °C 1012.1 hPa South 4.8 km/h 8.0 km/h 96 % 0.0 mm 0 W/m2
23:15 10.7 °C 10.1 °C 1012.1 hPa South 4.8 km/h 6.4 km/h 96 % 0.0 mm 0 W/m2
23:20 10.7 °C 10.1 °C 1012.1 hPa South 4.8 km/h 9.7 km/h 96 % 0.0 mm 0 W/m2
23:25 10.7 °C 10.1 °C 1012.1 hPa South 3.2 km/h 9.7 km/h 96 % 0.0 mm 0 W/m2
23:30 10.7 °C 10.1 °C 1012.1 hPa Calm   8.0 km/h 96 % 0.0 mm 0 W/m2
23:35 10.7 °C 10.3 °C 1012.1 hPa South 4.8 km/h 6.4 km/h 97 % 0.0 mm 0 W/m2
23:45 10.7 °C 10.3 °C 1012.1 hPa SSW 6.4 km/h 9.7 km/h 97 % 0.0 mm 0 W/m2
23:50 10.7 °C 10.3 °C 1012.1 hPa SSW 3.2 km/h 9.7 km/h 97 % 0.0 mm 0 W/m2
Avec l'autorisation de Weather Underground - 1.75 mb